Weather reports worldwide

Advertisment
Arkona, Germany (10091): temperature & dewpoint: 13.12.2018 05:00:00 - 19.12.2018 05:00:00 (CET)Arkona, Germany (10091): temperature 5cm & temperature -5cm: 13.12.2018 05:00:00 - 19.12.2018 05:00:00 (CET)Arkona, Germany (10091): temperature -20cm & temperature -100cm: 13.12.2018 05:00:00 - 19.12.2018 05:00:00 (CET)Arkona, Germany (10091): water temperature: 13.12.2018 05:00:00 - 19.12.2018 05:00:00 (CET)Arkona, Germany (10091): wind speed & gusts: 13.12.2018 05:00:00 - 19.12.2018 05:00:00 (CET)Arkona, Germany (10091): wind direction: 13.12.2018 05:00:00 - 19.12.2018 05:00:00 (CET)Arkona, Germany (10091): reduced air pressure: 13.12.2018 05:00:00 - 19.12.2018 05:00:00 (CET)Arkona, Germany (10091): visibility: 13.12.2018 05:00:00 - 19.12.2018 05:00:00 (CET)Arkona, Germany (10091): sunshine duration: 13.12.2018 05:00:00 - 19.12.2018 05:00:00 (CET)Arkona, Germany (10091): precipitation: 13.12.2018 05:00:00 - 19.12.2018 05:00:00 (CET)
Date & Time tt [°C] td [°C] tt 5cm [°C] tt -5cm [°C] tt -20cm [°C] tt -100cm [°C] tw [°C] ff [km/h] ff [kn] fx [km/h] fx [kn] dd ppp [hPa] vv [km] sd [min] rr [mm]
19.12.2018 05:00:00 2,7 2,0 2,5 2,6 3,0 6,5 6,7 32 18 48 26 SE 1020,4 5 0 0,0
19.12.2018 04:00:00 2,9 2,4 2,8 2,7 2,9 6,5 6,7 29 16 44 24 SSE 1021,1 3,3 0 0,0
19.12.2018 03:00:00 2,7 2,5 2,7 2,6 2,9 6,6 6,7 26 14 39 21 SSE 1021,8 3,5 0 0,0
19.12.2018 02:00:00 2,4 2,4 2,4 2,6 2,9 6,6 6,5 27 15 39 21 SSE 1022,1 1,0 0 0,0
19.12.2018 01:00:00 2,3 2,3 2,3 2,6 2,9 6,6 6,4 27 14 37 20 SSE 1022,6 1,3 0 0,0
19.12.2018 00:00:00 2,5 2,5 2,5 2,5 2,9 6,6 6,3 22 12 35 19 S 1023,2 0,2 0 0,0
18.12.2018 23:00:00 1,9 1,9 2,0 2,5 2,8 6,6 6,3 21 12 41 22 S 1023,4 0,1 0 0,0
18.12.2018 22:00:00 2,6 2,4 2,6 2,8 2,8 6,6 6,3 31 17 41 22 S 1023,8 0,2 0 0,0
18.12.2018 21:00:00 3,4 3,0 3,2 2,7 2,8 6,6 6,3 22 12 34 18 S 1023,9 2,7 0 0,0
18.12.2018 20:00:00 3,1 2,9 3,0 2,7 2,7 6,6 6,3 19 10 26 14 S 1024,0 1,4 0 0,0
18.12.2018 19:00:00 3,0 2,9 3,0 2,6 2,7 6,6 6,2 18 10 27 14 S 1024,5 0,9 0 0,0
18.12.2018 18:00:00 2,7 2,5 2,7 2,6 2,6 6,6 6,2 18 10 29 16 S 1024,3 0,3 0 0,0
18.12.2018 17:00:00 2,8 2,5 2,8 2,6 2,5 6,6 6,3 22 12 32 17 S 1024,6 1,4 0 0,0
18.12.2018 16:00:00 2,7 2,5 2,7 2,6 2,5 6,6 6,4 22 12 34 18 S 1024,4 1,0 0 0,0
18.12.2018 15:00:00 2,7 2,3 2,8 2,6 2,4 6,7 6,5 22 12 34 18 S 1024,5 1,8 0 0,0
18.12.2018 14:00:00 2,8 2,0 2,9 2,6 2,2 6,7 6,5 25 14 38 21 SSE 1024,6 3,9 0 0,0
18.12.2018 13:00:00 2,7 1,9 2,8 2,3 2,1 6,7 6,6 27 14 40 22 SSE 1024,9 3,1 0 0,0
18.12.2018 12:00:00 2,6 1,7 2,6 2,1 2,0 6,7 6,6 24 13 36 19 SSE 1025,1 3,8 0 0,0
18.12.2018 11:00:00 2,7 1,5 2,6 1,9 1,9 6,7 6,6 19 10 29 16 SE 1025,5 6 0 0,0
18.12.2018 10:00:00 2,5 1,4 2,3 1,6 1,8 6,7 6,6 22 12 30 16 SE 1025,5 4,6 0 0,0
18.12.2018 09:00:00 2,4 1,2 2,1 1,4 1,8 6,7 6,6 22 12 32 17 SE 1025,3 4,1 0 0,0
18.12.2018 08:00:00 2,2 1,1 1,8 1,0 1,7 6,7 6,6 19 10 27 14 SE 1025,2 4,3 0 0,0
18.12.2018 07:00:00 2,1 0,9 1,6 0,6 1,7 6,7 6,6 19 10 26 14 SE 1024,8 5 0 0,0
18.12.2018 06:00:00 2,2 0,6 1,9 0,4 1,6 6,7 6,6 16 9 24 13 SSE 1025,0 11 0 0,0
18.12.2018 05:00:00 2,0 0,5 1,7 0,4 1,6 6,7 6,6 17 9 24 13 SSE 1024,7 15 0 0,0
18.12.2018 04:00:00 1,9 0,6 1,5 0,4 1,6 6,8 6,5 14 8 23 13 SE 1024,6 12 0 0,0
18.12.2018 03:00:00 1,5 0,3 1,2 0,3 1,6 6,8 6,5 12 7 25 14 SSE 1024,9 9 0 0,0
18.12.2018 02:00:00 1,2 -0,1 0,8 0,3 1,6 6,8 6,5 15 8 24 13 SSE 1024,5 4,8 0 0,0
18.12.2018 01:00:00 1,1 -0,7 0,7 0,3 1,6 6,8 6,6 16 9 24 13 SSE 1024,6 9 0 0,0
18.12.2018 00:00:00 1,0 -1,2 0,7 0,3 1,6 6,8 6,6 15 8 19 11 S 1024,9 10 0 0,0
17.12.2018 23:00:00 0,5 -1,4 0,3 0,3 1,6 6,8 6,6 14 7 21 12 S 1024,8 8 0 0,0
17.12.2018 22:00:00 0,5 -2,3 0,3 0,3 1,6 6,8 6,7 14 8 23 12 S 1024,6 13 0 0,0
17.12.2018 21:00:00 0,7 -2,0 0,4 0,3 1,6 6,8 6,7 15 8 21 11 S 1024,5 13 0 0,0
17.12.2018 20:00:00 0,8 -2,5 0,5 0,3 1,6 6,8 6,7 13 7 22 12 S 1024,1 14 0 0,0
17.12.2018 19:00:00 1,1 -3,5 0,7 0,3 1,6 6,8 6,7 16 9 27 14 SE 1023,4 23 0 0,0
17.12.2018 18:00:00 1,0 -2,9 0,5 0,3 1,6 6,9 6,7 13 7 20 11 SSE 1023,2 18 0 0,0
17.12.2018 17:00:00 0,6 -2,2 0,3 0,3 1,6 6,9 6,7 11 6 17 9 S 1022,7 11 0 0,0
17.12.2018 16:00:00 0,4 -2,6 -0,4 0,3 1,6 6,9 6,7 10 6 19 11 S 1022,3 13 0 0,0
17.12.2018 15:00:00 0,1 -3,0 -0,8 0,3 1,7 6,9 6,7 13 7 20 11 S 1021,7 13 20 0,0
17.12.2018 14:00:00 0,8 -3,0 0,8 0,3 1,7 6,9 6,7 14 7 20 11 S 1021,2 14 57 0,0
17.12.2018 13:00:00 1,1 -3,0 2,1 0,3 1,7 6,9 6,7 14 8 18 10 S 1020,7 16 60 0,0
17.12.2018 12:00:00 0,8 -3,3 1,6 0,3 1,7 6,9 6,7 13 7 21 11 SSW 1020,8 15 30 0,0
17.12.2018 11:00:00 -0,1 -3,7 0,1 0,2 1,7 6,9 6,7 11 6 17 9 SSW 1020,8 18 0 0,0
17.12.2018 10:00:00 -0,3 -3,6 -0,4 0,2 1,7 6,9 6,7 13 7 16 8 SSW 1020,6 18 0 0,0
17.12.2018 09:00:00 -0,6 -3,6 -0,9 0,2 1,7 6,9 6,7 9 5 18 10 SW 1019,8 18 0 0,0
17.12.2018 08:00:00 -0,8 -3,4 -1,0 0,2 1,7 6,9 6,7 14 8 21 11 SW 1019,0 17 0 0,0
17.12.2018 07:00:00 -0,7 -3,3 -0,9 0,2 1,7 7,0 6,7 16 9 21 11 SW 1018,4 15 0 0,0
17.12.2018 06:00:00 -0,4 -3,4 -0,7 0,2 1,7 7,0 6,7 12 7 20 11 SSW 1018,0 17 0 0,0
17.12.2018 05:00:00 -0,3 -3,5 -0,6 0,2 1,7 7,0 6,7 15 8 19 10 SSW 1017,4 17 0 0,0
17.12.2018 04:00:00 -0,2 -4,1 -0,5 0,2 1,7 7,0 6,7 15 8 20 11 SSW 1017,1 20 0 0,0
17.12.2018 03:00:00 -0,1 -4,2 -0,4 0,2 1,8 7,0 6,7 15 8 22 12 SSW 1017,0 22 0 0,0
17.12.2018 02:00:00 -0,1 -4,0 -0,4 0,2 1,8 7,0 6,6 15 8 19 10 S 1016,7 21 0 0,0
17.12.2018 01:00:00 0,0 -3,7 -0,3 0,3 1,8 7,0 6,7 14 8 23 13 S 1016,7 21 0 0,0
17.12.2018 00:00:00 0,1 -4,5 -0,2 0,3 1,8 7,0 6,7 15 8 25 14 S 1016,4 24 0 0,0
16.12.2018 23:00:00 0,0 -5,1 -0,3 0,3 1,8 7,0 6,6 13 7 26 14 S 1016,4 24 0 0,0
16.12.2018 22:00:00 -0,1 -5,2 -0,4 0,3 1,8 7,0 6,6 11 6 35 19 S 1016,2 24 0 0,0
16.12.2018 21:00:00 -0,1 -4,9 -0,3 0,3 1,8 7,1 6,6 20 11 34 18 S 1016,0 25 0 0,0
16.12.2018 20:00:00 0,2 -5,1 -0,1 0,3 1,9 7,1 6,6 21 11 33 18 SSE 1015,8 22 0 0,0
16.12.2018 19:00:00 0,2 -6,0 0,0 0,3 1,9 7,1 6,7 25 13 32 18 S 1015,9 34 0 0,0
16.12.2018 18:00:00 0,4 -5,4 0,1 0,3 1,9 7,1 6,8 23 13 36 19 S 1015,9 34 0 0,0
16.12.2018 17:00:00 0,7 -4,9 0,4 0,4 1,9 7,1 6,7 18 10 31 17 SSE 1015,6 28 0 0,0
16.12.2018 16:00:00 0,5 -4,6 0,2 0,4 1,9 7,1 6,8 18 10 32 17 S 1015,9 23 0 0,0
16.12.2018 15:00:00 0,9 -4,5 0,6 0,4 2,0 7,1 6,7 23 12 40 22 S 1016,1 34 0 0,0
16.12.2018 14:00:00 0,9 -4,2 0,7 0,4 2,0 7,1 6,7 29 15 40 21 SSE 1016,2 34 0 0,0
16.12.2018 13:00:00 0,8 -4,0 0,5 0,4 2,0 7,1 6,8 24 13 44 24 S 1017,2 30 0 0,0
16.12.2018 12:00:00 1,0 -3,8 0,7 0,4 2,0 7,1 6,8 26 14 39 21 SSE 1018,0 27 0 0,0
16.12.2018 11:00:00 1,1 -4,0 0,9 0,4 2,1 7,1 6,9 29 15 44 24 SE 1019,0 33 0 0,0
16.12.2018 10:00:00 1,2 -4,0 0,7 0,4 2,1 7,2 6,9 29 16 47 25 SE 1019,2 35 4 0,0
16.12.2018 09:00:00 0,7 -4,2 -0,2 0,4 2,1 7,2 6,9 34 19 48 26 SSE 1019,7 36 0 0,0
16.12.2018 08:00:00 0,4 -3,5 -0,1 0,4 2,2 7,2 6,8 35 19 50 27 SSE 1020,1 30 0 0,0
16.12.2018 07:00:00 0,9 -3,4 0,2 0,4 2,2 7,2 6,8 31 17 46 25 SE 1020,8 26 0 0,0
16.12.2018 06:00:00 1,3 -3,2 0,4 0,5 2,3 7,2 6,8 28 15 40 22 SE 1021,3 30 0 0,0
16.12.2018 05:00:00 1,5 -4,0 0,4 0,5 2,4 7,2 6,9 23 13 40 21 SE 1021,8 37 0 0,0
16.12.2018 04:00:00 1,8 -3,4 1,3 0,8 2,4 7,2 6,8 29 15 40 22 SSE 1022,7 33 0 0,0
16.12.2018 03:00:00 2,0 -1,5 1,7 1,0 2,4 7,2 - 29 16 40 22 SE 1023,4 26 0 0,0
16.12.2018 02:00:00 2,1 -1,6 1,7 1,0 2,5 7,2 6,8 23 12 36 19 SE 1024,1 27 0 0,0
16.12.2018 01:00:00 2,2 -1,3 1,7 1,0 2,5 7,2 6,9 23 13 37 20 SE 1024,7 26 0 0,0
16.12.2018 00:00:00 1,9 -2,1 1,5 1,1 2,5 7,2 6,9 25 13 35 19 SE 1025,5 30 0 0,0
15.12.2018 23:00:00 1,9 -1,0 1,2 1,3 2,6 7,3 6,9 17 9 29 15 SE 1026,3 21 0 0,0
15.12.2018 22:00:00 1,5 -0,5 1,0 1,3 2,6 7,3 6,8 16 9 38 21 SSE 1026,7 26 0 0,0
15.12.2018 21:00:00 1,5 -0,4 1,3 1,4 2,6 7,3 6,9 27 14 49 26 SSE 1027,2 36 0 0,0
15.12.2018 20:00:00 2,1 -0,4 1,8 1,2 2,6 7,3 6,9 36 19 46 25 ESE 1027,4 36 0 0,0
15.12.2018 19:00:00 2,4 -0,3 1,9 1,1 2,7 7,3 6,9 27 15 40 22 ESE 1027,9 37 0 0,0
15.12.2018 18:00:00 2,3 -1,3 1,5 1,2 2,7 7,3 6,9 23 13 32 17 ESE 1028,4 44 0 0,0
15.12.2018 17:00:00 2,3 -0,5 1,4 1,5 2,7 7,3 6,9 21 11 29 16 ESE 1028,7 37 0 0,0
15.12.2018 16:00:00 2,5 -0,1 1,8 1,9 2,7 7,3 6,9 9 5 29 16 E 1029,1 35 0 0,0
15.12.2018 15:00:00 2,3 0,2 2,0 2,1 2,6 7,3 6,9 15 8 19 10 NW 1029,5 29 0 0,0
15.12.2018 14:00:00 2,1 -0,3 2,0 2,0 2,6 7,3 6,9 12 7 19 10 WNW 1029,7 36 0 0,0
15.12.2018 13:00:00 1,4 -0,8 1,5 1,8 2,5 7,3 6,9 11 6 16 8 W 1030,1 28 0 0,0
15.12.2018 12:00:00 1,1 -1,7 1,5 1,9 2,4 7,4 6,9 10 6 12 7 WSW 1030,6 44 0 0,0
15.12.2018 11:00:00 0,9 -2,0 1,1 1,5 2,4 7,4 6,9 9 5 12 7 WSW 1031,3 39 0 0,0
15.12.2018 10:00:00 0,4 -2,6 0,4 1,0 2,4 7,4 6,9 9 5 11 6 WSW 1031,3 39 0 0,0
15.12.2018 09:00:00 0,1 -2,0 -0,1 0,7 2,4 7,4 7,0 8 4 9 5 WSW 1031,2 34 0 0,0
15.12.2018 08:00:00 0,2 -2,9 0,0 0,8 2,4 7,4 7,0 7 4 9 5 WSW 1031,2 48 0 0,0
15.12.2018 07:00:00 0,3 -3,0 0,2 0,8 2,4 7,4 6,9 8 4 14 7 WSW 1031,2 48 0 0,0
15.12.2018 06:00:00 0,3 -2,8 0,2 0,8 2,4 7,4 7,0 9 5 10 6 WSW 1030,9 40 0 0,0
15.12.2018 05:00:00 0,6 -2,6 0,3 0,8 2,5 7,4 7,0 6 3 16 9 SW 1030,9 42 0 0,0
15.12.2018 04:00:00 1,2 -3,5 0,9 0,8 2,5 7,4 7,0 11 6 20 11 S 1030,7 60 0 0,0
15.12.2018 03:00:00 1,3 -3,7 0,9 0,7 2,5 7,4 6,9 13 7 22 12 SE 1030,9 48 0 0,0
15.12.2018 02:00:00 1,4 -3,7 1,1 0,7 2,6 7,4 6,9 17 9 29 16 SE 1031,0 49 0 0,0
15.12.2018 01:00:00 1,4 -3,8 1,0 0,8 2,6 7,4 7,0 19 10 37 20 SE 1030,9 43 0 0,0
15.12.2018 00:00:00 1,4 -3,0 1,1 0,8 2,7 7,4 7,0 23 12 37 20 ESE 1030,8 42 0 0,0
14.12.2018 23:00:00 1,5 -4,2 1,2 0,9 2,7 7,5 7,0 27 15 42 23 ESE 1030,7 65 0 0,0
14.12.2018 22:00:00 1,9 -2,7 1,4 1,0 2,8 7,5 7,0 14 8 39 21 E 1030,6 53 0 0,0
14.12.2018 21:00:00 2,0 -2,4 1,6 1,1 2,8 7,5 7,0 11 6 31 17 E 1030,5 54 0 0,0
14.12.2018 20:00:00 1,9 -2,8 1,5 1,1 2,9 7,5 7,0 15 8 28 15 ESE 1030,1 41 0 0,0
14.12.2018 19:00:00 1,7 -3,5 1,3 1,0 3,0 7,5 7,0 16 9 29 16 ESE 1030,1 38 0 0,0
14.12.2018 18:00:00 1,7 -2,7 1,2 1,1 3,0 7,5 7,1 14 7 32 17 E 1029,8 44 0 0,0
14.12.2018 17:00:00 1,6 -2,8 1,2 1,2 3,1 7,5 7,1 20 11 33 18 ESE 1029,5 45 0 0,0
14.12.2018 16:00:00 1,7 -2,8 1,3 1,4 3,2 7,5 7,1 8 4 32 18 ENE 1029,2 40 0 0,0
14.12.2018 15:00:00 1,6 -2,7 1,4 1,7 3,2 7,5 7,1 14 8 44 24 E 1029,0 42 0 0,0
14.12.2018 14:00:00 1,6 -2,6 1,5 1,9 3,2 7,5 7,1 19 10 41 22 E 1028,7 39 0 0,0
14.12.2018 13:00:00 1,7 -2,3 1,6 2,0 3,2 7,5 7,1 10 6 45 25 E 1028,7 50 0 0,0
14.12.2018 12:00:00 2,1 -2,1 1,9 1,9 3,2 7,5 7,1 22 12 47 25 E 1028,4 40 0 0,0
14.12.2018 11:00:00 2,3 -1,5 2,0 2,0 3,2 7,5 7,1 13 7 44 24 E 1028,4 50 0 0,0
14.12.2018 10:00:00 2,3 -1,3 2,0 1,8 3,3 7,5 7,1 23 12 47 26 E 1028,2 36 0 0,0
14.12.2018 09:00:00 3,0 -1,6 2,4 1,8 3,3 7,5 7,1 19 10 44 24 E 1027,4 42 0 0,0
14.12.2018 08:00:00 2,9 -1,3 2,2 1,9 3,3 7,5 7,1 16 9 42 23 E 1027,0 45 0 0,0
14.12.2018 07:00:00 2,9 -0,5 1,9 2,0 3,4 7,5 7,1 10 5 29 16 E 1026,6 34 0 0,0
14.12.2018 06:00:00 2,1 0,2 1,5 2,0 3,4 7,6 7,1 22 12 38 21 SE 1026,6 35 0 0,0
14.12.2018 05:00:00 2,2 0,7 1,7 2,0 3,4 7,6 7,1 18 10 38 21 ESE 1026,4 36 0 0,0
14.12.2018 04:00:00 2,6 0,5 1,7 1,9 3,4 7,6 7,1 16 9 35 19 E 1026,2 48 0 0,0
14.12.2018 03:00:00 1,6 0,9 0,7 1,8 3,5 7,6 7,1 5 3 28 15 ENE 1026,4 22 0 0,1
14.12.2018 02:00:00 1,8 1,1 1,7 1,9 3,5 7,6 7,0 8 4 36 20 ENE 1026,4 38 0 0,3
14.12.2018 01:00:00 1,8 0,0 0,4 1,8 3,6 7,6 7,1 6 3 32 17 E 1026,1 33 0 0,0
14.12.2018 00:00:00 3,3 0,2 2,8 1,9 3,7 7,6 7,1 8 4 34 18 E 1026,1 54 0 0,0
13.12.2018 23:00:00 2,5 -0,6 2,0 1,8 3,8 7,6 7,1 39 21 56 31 ENE 1026,2 35 0 0,0
13.12.2018 22:00:00 2,8 0,1 1,7 2,0 3,9 7,6 7,1 27 15 48 26 ENE 1026,1 51 0 0,0
13.12.2018 21:00:00 3,3 0,8 2,9 2,4 3,9 7,6 7,1 37 20 54 29 ENE 1025,8 47 0 0,0
13.12.2018 20:00:00 3,6 0,5 3,2 2,4 4,0 7,6 7,2 40 22 53 29 ENE 1025,6 42 0 0,0
13.12.2018 19:00:00 3,5 -0,4 2,8 2,5 4,1 7,6 7,2 46 25 55 30 ENE 1025,5 48 0 0,0
13.12.2018 18:00:00 3,9 0,0 3,2 2,8 4,1 7,6 7,2 39 21 59 32 ENE 1025,5 52 0 0,0
13.12.2018 17:00:00 3,7 0,0 2,8 3,0 4,2 7,6 7,2 42 23 61 33 E 1025,5 53 0 0,0
13.12.2018 16:00:00 3,4 0,4 2,4 3,2 4,2 7,6 7,2 42 23 63 34 ENE 1025,8 53 0 0,2
13.12.2018 15:00:00 3,8 1,2 3,3 3,6 4,2 7,6 7,2 32 18 50 27 ENE 1025,8 52 0 0,0
13.12.2018 14:00:00 3,4 1,5 3,2 3,7 4,2 7,6 7,2 42 23 52 28 ENE 1026,0 48 0 0,0
13.12.2018 13:00:00 3,9 1,0 3,5 3,8 4,1 7,6 7,2 32 17 45 24 ENE 1026,2 56 11 0,0
13.12.2018 12:00:00 3,9 1,7 3,7 3,6 4,0 7,6 7,2 28 15 53 29 E 1026,4 62 1 0,0
13.12.2018 11:00:00 4,1 1,0 3,2 3,4 4,0 7,6 7,2 39 21 53 28 E 1026,6 55 0 0,0
13.12.2018 10:00:00 3,5 1,3 2,8 3,0 4,0 7,6 7,2 41 22 59 32 ENE 1026,8 47 0 0,3
13.12.2018 09:00:00 3,7 2,0 3,2 3,0 4,0 7,6 7,2 36 20 58 31 ENE 1026,7 39 0 0,0
13.12.2018 08:00:00 4,0 1,8 3,3 2,9 4,0 7,6 7,2 40 22 49 26 ENE 1026,7 59 0 0,0
13.12.2018 07:00:00 4,0 1,5 3,0 2,7 4,0 7,6 7,2 35 19 50 27 E 1026,5 47 0 0,0
13.12.2018 06:00:00 3,5 2,0 2,7 2,8 4,1 7,7 7,2 13 7 37 20 E 1026,8 50 0 0,4
13.12.2018 05:00:00 3,3 1,8 2,7 2,7 4,1 7,7 7,2 9 5 46 25 ENE 1027,1 40 0 0,0

tt = temperature
td = dewpoint
tt 5cm = temperature 5cm
tt -5cm = temperature -5cm
tt -20cm = temperature -20cm
tt -100cm = temperature -100cm
tw = water temperature
ff = wind speed
fx = gusts
dd = wind direction
ppp = reduced air pressure
vv = visibility
sd = sunshine duration
rr = precipitation

Next stations